EJA673 KCAE-KCRG

Flight info

Callsign EJA673
Flight time N/A
Altitude 34000
Route SAV SSI
Aircraft CL60/M-SBDE1E2E3FGHIJ1J4J5J7M3RWXYZ/LB1V1D1

Departure

Time 2026-04-25 23:37
Airport Columbia Metropolitan Airport (KCAE)

Arrival

Time N/A
Airport Jacksonville Executive at Craig Airport (KCRG)
Time Latitude Longitude Altitude Speed Heading
2026-04-25 23:10 33.94410 -81.12115 236 ft 0 kts 36°
2026-04-25 23:30 33.94411 -81.12112 236 ft 2 kts 56°
2026-04-25 23:30 33.94381 -81.12097 235 ft 7 kts 171°
2026-04-25 23:30 33.94320 -81.12100 234 ft 10 kts 197°
2026-04-25 23:30 33.94260 -81.12137 234 ft 9 kts 261°
2026-04-25 23:31 33.94275 -81.12221 236 ft 11 kts 285°
2026-04-25 23:31 33.94296 -81.12315 238 ft 12 kts 286°
2026-04-25 23:31 33.94317 -81.12421 240 ft 12 kts 284°
2026-04-25 23:31 33.94342 -81.12524 242 ft 13 kts 286°
2026-04-25 23:32 33.94366 -81.12639 244 ft 15 kts 285°
2026-04-25 23:32 33.94394 -81.12769 246 ft 16 kts 284°
2026-04-25 23:32 33.94426 -81.12914 247 ft 18 kts 283°
2026-04-25 23:32 33.94459 -81.13064 247 ft 16 kts 285°
2026-04-25 23:33 33.94488 -81.13197 247 ft 15 kts 284°
2026-04-25 23:33 33.94519 -81.13335 246 ft 19 kts 284°
2026-04-25 23:33 33.94547 -81.13470 245 ft 18 kts 285°
2026-04-25 23:33 33.94573 -81.13590 244 ft 15 kts 285°
2026-04-25 23:34 33.94591 -81.13673 243 ft 9 kts 276°
2026-04-25 23:34 33.94540 -81.13724 241 ft 8 kts 194°
2026-04-25 23:34 33.94497 -81.13737 240 ft 0 kts 195°
2026-04-25 23:35 33.94491 -81.13738 240 ft 4 kts 195°
2026-04-25 23:35 33.94432 -81.13757 239 ft 8 kts 194°
2026-04-25 23:36 33.94403 -81.13724 239 ft 6 kts 104°
2026-04-25 23:36 33.94395 -81.13685 240 ft 8 kts 104°
2026-04-25 23:36 33.94305 -81.13274 244 ft 102 kts 103°
2026-04-25 23:36 33.94051 -81.12090 509 ft 172 kts 102°
2026-04-25 23:37 33.93740 -81.10620 1460 ft 196 kts 101°
2026-04-25 23:37 33.93410 -81.08954 2395 ft 218 kts 101°
2026-04-25 23:37 33.93166 -81.07778 2859 ft 220 kts 103°
2026-04-25 23:37 33.92645 -81.05405 3028 ft 219 kts 104°
2026-04-25 23:38 33.92254 -81.03613 3018 ft 220 kts 103°
2026-04-25 23:38 33.91865 -81.01826 2987 ft 219 kts 104°
2026-04-25 23:38 33.91459 -81.00060 2972 ft 218 kts 104°
2026-04-25 23:38 33.91056 -80.98319 2997 ft 218 kts 104°
2026-04-25 23:39 33.90646 -80.96546 3007 ft 219 kts 104°
2026-04-25 23:39 33.90102 -80.94835 3006 ft 221 kts 123°
2026-04-25 23:39 33.88905 -80.93577 3099 ft 244 kts 157°
2026-04-25 23:39 33.87149 -80.93304 3408 ft 264 kts 188°
2026-04-25 23:40 33.85273 -80.93615 4289 ft 284 kts 190°
2026-04-25 23:40 33.83419 -80.93913 6251 ft 271 kts 191°
2026-04-25 23:40 33.81626 -80.94199 7957 ft 267 kts 190°
2026-04-25 23:40 33.79798 -80.94494 9359 ft 274 kts 190°
2026-04-25 23:41 33.77897 -80.94800 10577 ft 286 kts 190°
2026-04-25 23:41 33.75804 -80.95139 11144 ft 321 kts 191°
2026-04-25 23:41 33.73498 -80.95509 12000 ft 341 kts 190°
2026-04-25 23:41 33.71193 -80.95873 12988 ft 352 kts 190°
2026-04-25 23:42 33.68634 -80.96276 14098 ft 359 kts 190°
2026-04-25 23:42 33.66134 -80.96668 15129 ft 368 kts 190°
2026-04-25 23:42 33.63572 -80.97070 16066 ft 376 kts 191°
2026-04-25 23:42 33.60932 -80.97484 17007 ft 383 kts 191°
2026-04-25 23:43 33.58264 -80.97900 17912 ft 389 kts 191°
2026-04-25 23:43 33.55550 -80.98324 18860 ft 394 kts 191°
2026-04-25 23:43 33.52794 -80.98754 19739 ft 400 kts 191°
2026-04-25 23:43 33.50021 -80.99186 20563 ft 406 kts 191°
2026-04-25 23:44 33.47168 -80.99631 21378 ft 412 kts 191°
2026-04-25 23:44 33.44458 -81.00052 22097 ft 417 kts 191°
2026-04-25 23:44 33.41385 -81.00530 22904 ft 422 kts 191°
2026-04-25 23:44 33.38432 -81.00988 23669 ft 426 kts 191°
2026-04-25 23:45 33.35472 -81.01447 24422 ft 430 kts 191°
2026-04-25 23:45 33.33478 -81.01755 24899 ft 432 kts 191°
2026-04-25 23:45 33.29441 -81.02380 25839 ft 437 kts 191°
2026-04-25 23:45 33.26415 -81.02847 26539 ft 439 kts 191°
2026-04-25 23:46 33.23342 -81.03323 27162 ft 442 kts 191°
2026-04-25 23:46 33.20265 -81.03797 27741 ft 445 kts 191°
2026-04-25 23:46 33.17213 -81.04268 28328 ft 447 kts 191°
2026-04-25 23:46 33.14072 -81.04752 28888 ft 449 kts 191°
2026-04-25 23:47 33.10976 -81.05229 29386 ft 452 kts 191°
2026-04-25 23:47 33.07836 -81.05711 29982 ft 451 kts 191°
2026-04-25 23:47 33.04713 -81.06191 30634 ft 449 kts 191°
2026-04-25 23:47 33.01612 -81.06667 31295 ft 446 kts 191°
2026-04-25 23:48 32.98502 -81.07143 31932 ft 443 kts 192°
2026-04-25 23:48 32.95458 -81.07610 32526 ft 441 kts 192°
2026-04-25 23:48 32.93045 -81.07980 32941 ft 441 kts 193°
2026-04-25 23:48 32.90902 -81.08312 33254 ft 442 kts 193°
2026-04-25 23:49 32.88618 -81.08663 33603 ft 442 kts 193°